Weather History for Panama City Tyndall AFB, FL

Change the Weather History Date:

Wednesday, November 28, 2012

  Actual Average Record
Temperature  
Mean Temperature 52 °F -  
Max Temperature 57 °F 67 °F 80 °F (2001)
Min Temperature 43 °F 48 °F 32 °F (2013)
Degree Days  
Heating Degree Days 13    
Growing Degree Days 2 (Base 50)    
Moisture  
Dew Point 52 °F    
Average Humidity 93    
Maximum Humidity 100    
Minimum Humidity 76    
Precipitation  
Precipitation 0.00 in - - ()
Sea Level Pressure  
Sea Level Pressure 30.30 in    
Wind  
Wind Speed 6 mph (NNE)    
Max Wind Speed 10 mph    
Max Gust Speed -    
Visibility 10 miles    
Events      
Averages and records for this station are not official NWS values.
T = Trace of Precipitation, MM = Missing Value Source: NWS Daily Summary

Daily Weather History Graph

Daily Weather History Graph

Search for Another Location

Airport:

Trip Planner

Search our weather history database for the weather conditions in past years. The results will help you decide how hot, cold, wet, or windy it might be!

Date:

Astronomy

Nov. 28, 2012 Rise Set
Actual Time 6:18 AM CST 4:42 PM CST
Civil Twilight 5:52 AM CST 5:08 PM CST
Nautical Twilight 5:23 AM CST 5:37 PM CST
Astronomical Twilight 4:54 AM CST 6:06 PM CST
Moon 4:56 PM CST (11/28) 6:15 AM CST (11/28)
Length of Visible Light 11h 15m
Length of Day
10h 23m
Full, 100% of the Moon is Illuminated
Nov 28
Full
Dec 6
Last Quarter
Dec 13
New
Dec 19
First Quarter
Dec 28
Full

Hourly Weather History & Observations

Time (CST) Temp. Dew Point Humidity Pressure Visibility Wind Dir Wind Speed Gust Speed Precip Events Conditions
12:31 AM 57.2 °F 57.2 °F 100% 30.21 in 10.0 mi NNE 3.5 mph - N/A   Scattered Clouds
12:55 AM 56.3 °F 56.1 °F 99% 30.21 in 10.0 mi North 4.6 mph - N/A   Clear
1:26 AM 57.2 °F 55.4 °F 94% 30.22 in 10.0 mi North 5.8 mph - N/A   Mostly Cloudy
1:31 AM 57.2 °F 57.2 °F 100% 30.22 in 10.0 mi North 8.1 mph - N/A   Mostly Cloudy
1:55 AM 57.4 °F 57.0 °F 99% 30.22 in 10.0 mi North 8.1 mph - N/A   Overcast
1:58 AM 57.2 °F 57.2 °F 100% 30.22 in 10.0 mi North 8.1 mph - N/A   Overcast
2:40 AM 57.2 °F 57.2 °F 100% 30.23 in 10.0 mi North 5.8 mph - N/A   Overcast
2:55 AM 57.4 °F 57.2 °F 99% 30.24 in 10.0 mi Variable 4.6 mph - N/A   Overcast
3:09 AM 57.2 °F 57.2 °F 100% 30.24 in 10.0 mi North 6.9 mph - N/A   Overcast
3:19 AM 57.2 °F 57.2 °F 100% 30.24 in 10.0 mi North 8.1 mph - N/A   Overcast
3:46 AM 57.2 °F 57.2 °F 100% 30.24 in 10.0 mi North 6.9 mph - N/A   Overcast
3:55 AM 57.2 °F 57.0 °F 99% 30.24 in 10.0 mi North 5.8 mph - N/A   Overcast
4:14 AM 57.2 °F 57.2 °F 100% 30.25 in 10.0 mi NNW 5.8 mph - N/A   Overcast
4:27 AM 57.2 °F 57.2 °F 100% 30.25 in 10.0 mi North 9.2 mph - N/A   Overcast
4:33 AM 57.2 °F 57.2 °F 100% 30.25 in 10.0 mi North 6.9 mph - N/A   Overcast
4:46 AM 55.4 °F 55.4 °F 100% 30.25 in 10.0 mi North 9.2 mph - N/A   Overcast
4:55 AM 55.8 °F 55.2 °F 98% 30.26 in 10.0 mi North 8.1 mph - N/A   Overcast
5:33 AM 55.4 °F 55.4 °F 100% 30.27 in 10.0 mi North 10.4 mph - N/A   Overcast
5:41 AM 55.4 °F 53.6 °F 94% 30.27 in 9.0 mi North 5.8 mph - N/A   Overcast
5:44 AM 55.4 °F 53.6 °F 94% 30.27 in 9.0 mi North 9.2 mph - N/A   Overcast
5:55 AM 54.3 °F 54.1 °F 99% 30.28 in 8.0 mi North 8.1 mph - N/A   Overcast
6:06 AM 53.6 °F 53.6 °F 100% 30.28 in 5.0 mi North 4.6 mph - N/A   Overcast
6:16 AM 53.6 °F 53.6 °F 100% 30.29 in 5.0 mi NNE 10.4 mph - N/A   Overcast
6:55 AM 53.4 °F 53.2 °F 99% 30.31 in 4.0 mi North 8.1 mph - N/A   Overcast
7:12 AM 53.6 °F 53.6 °F 100% 30.32 in 9.0 mi North 3.5 mph - N/A   Overcast
7:43 AM 53.6 °F 53.6 °F 100% 30.33 in 10.0 mi North 6.9 mph - N/A   Overcast
7:55 AM 53.4 °F 52.9 °F 98% 30.33 in 5.0 mi North 9.2 mph - N/A   Overcast
7:58 AM 53.6 °F 51.8 °F 94% 30.34 in 10.0 mi North 8.1 mph - N/A   Overcast
8:20 AM 53.6 °F 51.8 °F 94% 30.34 in 7.0 mi North 6.9 mph - N/A   Overcast
8:55 AM 54.0 °F 51.8 °F 92% 30.35 in 10.0 mi NNE 5.8 mph - N/A   Overcast
9:20 AM 55.4 °F 51.8 °F 88% 30.36 in 10.0 mi North 4.6 mph - N/A   Overcast
9:55 AM 54.9 °F 51.8 °F 89% 30.36 in 10.0 mi North 6.9 mph - N/A   Overcast
10:23 AM 55.4 °F 51.8 °F 88% 30.36 in 10.0 mi North 6.9 mph - N/A   Overcast
10:26 AM 55.4 °F 51.8 °F 88% 30.36 in 10.0 mi North 8.1 mph - N/A   Overcast
10:55 AM 54.9 °F 50.9 °F 86% 30.35 in 10.0 mi North 6.9 mph - N/A   Overcast
11:42 AM 55.4 °F 50.0 °F 82% 30.32 in 10.0 mi North 6.9 mph - N/A   Overcast
11:55 AM 55.9 °F 50.4 °F 82% 30.32 in 10.0 mi NNE 6.9 mph - N/A   Overcast
12:29 PM 55.4 °F 50.0 °F 82% 30.32 in 10.0 mi Variable 6.9 mph - N/A   Overcast
12:55 PM 54.5 °F 49.5 °F 83% 30.31 in 10.0 mi NNE 8.1 mph - N/A   Overcast
1:55 PM 55.0 °F 48.7 °F 79% 30.30 in 10.0 mi NE 6.9 mph - N/A   Mostly Cloudy
2:23 PM 55.4 °F 48.2 °F 77% 30.32 in 10.0 mi NNE 8.1 mph - N/A   Scattered Clouds
2:55 PM 56.1 °F 48.7 °F 76% 30.29 in 10.0 mi ENE 5.8 mph - N/A   Scattered Clouds
3:55 PM 54.3 °F 47.7 °F 78% 30.31 in 10.0 mi ENE 4.6 mph - N/A   Clear
4:55 PM 50.7 °F 47.3 °F 88% 30.32 in 10.0 mi East 3.5 mph - N/A   Clear
5:55 PM 50.2 °F 47.1 °F 89% 30.34 in 10.0 mi East 5.8 mph - N/A   Clear
6:55 PM 48.9 °F 46.2 °F 90% 30.35 in 10.0 mi East 3.5 mph - N/A   Clear
7:55 PM 48.7 °F 45.9 °F 90% 30.36 in 10.0 mi East 4.6 mph - N/A   Clear
8:55 PM 48.7 °F 46.2 °F 91% 30.37 in 10.0 mi East 4.6 mph - N/A   Scattered Clouds
9:00 PM 48.2 °F 46.4 °F 93% 30.37 in 10.0 mi East 5.8 mph - N/A   Mostly Cloudy
9:25 PM 48.2 °F 46.4 °F 93% 30.37 in 10.0 mi East 8.1 mph - N/A   Scattered Clouds
9:55 PM 48.0 °F 45.0 °F 89% 30.37 in 10.0 mi East 6.9 mph - N/A   Clear
10:10 PM 48.2 °F 44.6 °F 87% 30.37 in 10.0 mi Variable 5.8 mph - N/A   Mostly Cloudy
10:35 PM 48.2 °F 44.6 °F 87% 30.36 in 10.0 mi East 4.6 mph - N/A   Scattered Clouds
10:55 PM 47.1 °F 44.4 °F 90% 30.36 in 10.0 mi East 3.5 mph - N/A   Clear
11:55 PM 43.0 °F 42.6 °F 99% 30.35 in 9.0 mi Calm Calm - N/A   Clear